Date String (YYYY-MM-DD hh:mm:ss) UTC,Instrument flags,Ambient pressure (hPa),Sample flow (lpm),Bypass flow (lpm),Sample temperature (°C),Ambient temperature (°C),ASC tube jacket temperature (°C),LED temperature (°C),Box temperature (°C),Sample RH (%),Span deviation,Mass concentration (μg/m³),Mass concentration (μg/m³),Mass concentration (μg/m³)
DateTimeUTC,F1_M11,P_M11,Q1_M11,Q2_M11,T1_M11,T2_M11,T3_M11,T4_M11,T5_M11,U1_M11,ZSPAN_M11,X0_M11,X2_M11,X1_M11
2023-04-26 02:00:00,,0828.4,5.01,0.00,24.3,22.8,00.0,32.8,25.9,24.5,0000.0,0005.12,0002.63,0002.03
2023-04-26 02:01:00,,0828.4,5.01,0.00,24.3,22.8,00.0,32.8,25.9,24.5,0000.0,0005.08,0002.59,0002.00
2023-04-26 02:02:00,,0828.5,5.01,0.00,24.3,22.7,00.0,32.8,25.9,24.6,0000.0,0004.99,0002.56,0001.97
2023-04-26 02:03:00,,0828.6,4.99,0.00,24.3,22.7,00.0,32.8,25.9,24.7,0000.0,0003.66,0002.53,0001.95
2023-04-26 02:04:00,,0828.6,5.00,0.00,24.3,22.8,00.0,32.8,25.9,24.6,0000.0,0003.55,0002.46,0001.91
2023-04-26 02:05:00,,0828.6,4.99,0.00,24.3,22.8,00.0,32.8,25.9,24.7,0000.0,0003.28,0002.32,0001.83
2023-04-26 02:06:00,,0828.6,5.00,0.00,24.3,22.8,00.0,32.8,25.9,24.7,0000.0,0003.09,0002.20,0001.75
2023-04-26 02:07:00,,0828.6,5.00,0.00,24.3,22.8,00.0,32.8,25.9,24.7,0000.0,0002.75,0002.03,0001.67
2023-04-26 02:08:00,,0828.6,5.00,0.00,24.3,22.8,00.0,32.8,25.9,24.6,0000.0,0002.59,0001.88,0001.58
2023-04-26 02:09:00,,0828.7,5.00,0.00,24.3,22.8,00.0,32.8,25.9,24.6,0000.0,0002.55,0001.73,0001.48
2023-04-26 02:10:00,,0828.7,4.99,0.00,24.3,22.8,00.0,32.7,25.9,24.6,0000.0,0002.52,0001.65,0001.40
2023-04-26 02:11:00,,0828.7,5.00,0.00,24.3,22.8,00.0,32.7,25.9,24.6,0000.0,0002.41,0001.55,0001.30
2023-04-26 02:12:00,,0828.7,4.99,0.00,24.3,22.8,00.0,32.7,25.9,24.5,0000.0,0002.32,0001.47,0001.21
2023-04-26 02:13:00,,0828.7,5.01,0.00,24.3,22.8,00.0,32.7,25.9,24.5,0000.0,0002.18,0001.38,0001.13
2023-04-26 02:14:00,,0828.8,5.01,0.00,24.3,22.8,00.0,32.7,25.9,24.5,0000.0,0001.95,0001.24,0001.04
2023-04-26 02:15:00,,0828.7,5.01,0.00,24.3,22.8,00.0,32.7,25.9,24.4,0000.0,0001.85,0001.17,0000.98
2023-04-26 02:16:00,,0828.8,5.01,0.00,24.3,22.8,00.0,32.7,25.9,24.3,0000.0,0001.79,0001.13,0000.95
2023-04-26 02:17:00,,0828.7,5.00,0.00,24.3,22.7,00.0,32.7,25.9,24.3,0000.0,0001.70,0001.09,0000.93
2023-04-26 02:18:00,,0828.8,4.99,0.00,24.2,22.7,00.0,32.7,25.8,24.3,0000.0,0001.76,0001.09,0000.91
2023-04-26 02:19:00,,0828.8,4.99,0.00,24.2,22.7,00.0,32.7,25.7,24.2,0000.0,0001.72,0001.10,0000.89
2023-04-26 02:20:00,,0828.8,5.00,0.00,24.2,22.7,00.0,32.7,25.7,24.2,0000.0,0001.67,0001.12,0000.89
2023-04-26 02:21:00,,0828.8,5.00,0.00,24.2,22.7,00.0,32.7,25.7,24.2,0000.0,0001.59,0001.10,0000.88
2023-04-26 02:22:00,,0828.8,4.99,0.00,24.2,22.7,00.0,32.7,25.7,24.3,0000.0,0001.72,0001.11,0000.87
2023-04-26 02:23:00,,0828.8,5.00,0.00,24.2,22.7,00.0,32.7,25.7,24.2,0000.0,0001.73,0001.08,0000.87
2023-04-26 02:24:00,,0828.8,5.01,0.00,24.2,22.7,00.0,32.7,25.8,24.3,0000.0,0001.72,0001.07,0000.87
2023-04-26 02:25:00,,0828.7,5.01,0.00,24.2,22.7,00.0,32.7,25.8,24.2,0000.0,0001.72,0001.07,0000.87
2023-04-26 02:26:00,,0828.8,4.99,0.00,24.2,22.6,00.0,32.7,25.7,24.3,0000.0,0001.79,0001.10,0000.87
2023-04-26 02:27:00,,0828.8,4.99,0.00,24.2,22.6,00.0,32.6,25.7,24.4,0000.0,0001.82,0001.10,0000.86
2023-04-26 02:28:00,,0828.8,4.99,0.00,24.2,22.6,00.0,32.6,25.7,24.4,0000.0,0001.85,0001.11,0000.85
2023-04-26 02:29:00,,0828.8,5.00,0.00,24.2,22.6,00.0,32.6,25.7,24.5,0000.0,0001.86,0001.11,0000.85
2023-04-26 02:30:00,,0828.9,4.99,0.00,24.2,22.6,00.0,32.6,25.7,24.5,0000.0,0001.87,0001.11,0000.85
2023-04-26 02:31:00,,0828.9,5.01,0.00,24.2,22.6,00.0,32.6,25.7,24.5,0000.0,0001.90,0001.11,0000.84
2023-04-26 02:32:00,,0829.0,5.02,0.00,24.2,22.6,00.0,32.6,25.7,24.5,0000.0,0001.94,0001.13,0000.85
2023-04-26 02:33:00,,0829.0,5.00,0.00,24.1,22.6,00.0,32.6,25.7,24.5,0000.0,0001.85,0001.13,0000.85
2023-04-26 02:34:00,,0829.0,4.99,0.00,24.1,22.6,00.0,32.6,25.7,24.6,0000.0,0001.81,0001.15,0000.85
2023-04-26 02:35:00,,0828.9,4.99,0.00,24.1,22.6,00.0,32.6,25.6,24.6,0000.0,0001.93,0001.21,0000.86
2023-04-26 02:36:00,,0829.0,5.01,0.00,24.1,22.6,00.0,32.6,25.6,24.6,0000.0,0002.00,0001.24,0000.87
2023-04-26 02:37:00,,0828.9,5.00,0.00,24.1,22.6,00.0,32.6,25.6,24.6,0000.0,0001.99,0001.23,0000.87
2023-04-26 02:38:00,,0829.0,4.98,0.00,24.1,22.5,00.0,32.6,25.6,24.7,0000.0,0001.96,0001.23,0000.89
2023-04-26 02:39:00,,0829.0,5.00,0.00,24.1,22.5,00.0,32.6,25.6,24.6,0000.0,0001.94,0001.24,0000.89
2023-04-26 02:40:00,,0829.0,5.00,0.00,24.1,22.5,00.0,32.5,25.6,24.7,0000.0,0001.96,0001.24,0000.88
2023-04-26 02:41:00,,0829.0,5.01,0.00,24.1,22.5,00.0,32.5,25.6,24.8,0000.0,0001.89,0001.21,0000.87
2023-04-26 02:42:00,,0829.1,5.00,0.00,24.1,22.5,00.0,32.5,25.6,24.6,0000.0,0001.80,0001.18,0000.87
2023-04-26 02:43:00,,0829.1,5.00,0.00,24.0,22.5,00.0,32.5,25.6,24.6,0000.0,0001.73,0001.16,0000.87
2023-04-26 02:44:00,,0829.1,5.00,0.00,24.0,22.4,00.0,32.5,25.6,24.6,0000.0,0001.68,0001.14,0000.87
2023-04-26 02:45:00,,0829.1,4.99,0.00,24.0,22.4,00.0,32.5,25.5,24.6,0000.0,0001.66,0001.14,0000.86
2023-04-26 02:46:00,,0829.1,5.00,0.00,24.0,22.4,00.0,32.5,25.5,24.5,0000.0,0001.53,0001.07,0000.86
2023-04-26 02:47:00,,0829.1,5.00,0.00,24.0,22.4,00.0,32.5,25.5,24.5,0000.0,0001.45,0001.03,0000.85
2023-04-26 02:48:00,,0829.2,5.00,0.00,24.0,22.4,00.0,32.5,25.5,24.5,0000.0,0001.47,0001.02,0000.84
2023-04-26 02:49:00,,0829.2,5.00,0.00,24.0,22.4,00.0,32.5,25.5,24.5,0000.0,0001.56,0001.04,0000.83
2023-04-26 02:50:00,,0829.2,5.00,0.00,24.0,22.4,00.0,32.5,25.5,24.5,0000.0,0001.58,0001.04,0000.83
2023-04-26 02:51:00,,0829.2,5.00,0.00,24.0,22.4,00.0,32.5,25.5,24.6,0000.0,0001.51,0001.01,0000.83
2023-04-26 02:52:00,,0829.2,5.00,0.00,24.0,22.4,00.0,32.4,25.5,24.7,0000.0,0001.50,0001.01,0000.83
2023-04-26 02:53:00,,0829.2,5.00,0.00,24.0,22.4,00.0,32.4,25.5,24.7,0000.0,0001.52,0001.01,0000.82
2023-04-26 02:54:00,,0829.2,5.00,0.00,24.0,22.4,00.0,32.4,25.5,24.6,0000.0,0001.46,0000.98,0000.81
2023-04-26 02:55:00,,0829.2,5.00,0.00,24.0,22.4,00.0,32.4,25.5,24.6,0000.0,0001.49,0000.98,0000.79
2023-04-26 02:56:00,,0829.3,5.00,0.00,23.9,22.4,00.0,32.4,25.5,24.6,0000.0,0001.46,0000.96,0000.78
2023-04-26 02:57:00,,0829.3,5.01,0.00,23.9,22.4,00.0,32.4,25.5,24.6,0000.0,0001.47,0000.96,0000.77
2023-04-26 02:58:00,,0829.4,4.99,0.00,23.9,22.4,00.0,32.4,25.5,24.6,0000.0,0001.47,0000.95,0000.75
2023-04-26 02:59:00,,0829.4,5.00,0.00,23.9,22.4,00.0,32.4,25.5,24.6,0000.0,0001.49,0000.95,0000.75
